QPF
0.01 0.01 0.01 0.00 0.01 0.01 0.03 0.03 0.03 0.02 0.02 0.03 0.05 0.06 0.05 0.04 0.03 0.02 0.03 0.05 0.06 0.05 0.06 0.05 0.08 0.10 0.10 0.08 0.07 0.06 0.07 0.07 0.07 0.08 0.09 0.08 0.07 0.09 0.09 0.08 0.08 0.07 0.05
0.01 0.01 0.01 0.01 0.02 0.02 0.03 0.03 0.02 0.02 0.02 0.03 0.05 0.08 0.06 0.04 0.03 0.03 0.04 0.04 0.03 0.04 0.04 0.06 0.08 0.09 0.09 0.07 0.07 0.07 0.09 0.07 0.07 0.09 0.11 0.13 0.14 0.13 0.09 0.09 0.09 0.09 0.08
0.01 0.01 0.01 0.02 0.02 0.06 0.06 0.04 0.03 0.03 0.03 0.04 0.06 0.07 0.06 0.04 0.04 0.04 0.03 0.03 0.03 0.03 0.04 0.06 0.08 0.08 0.08 0.08 0.07 0.07 0.09 0.09 0.08 0.08 0.11 0.16 0.17 0.16 0.13 0.11 0.11 0.10 0.11
0.01 0.01 0.01 0.01 0.02 0.03 0.04 0.06 0.07 0.08 0.05 0.05 0.04 0.03 0.03 0.05 0.05 0.05 0.04 0.04 0.05 0.04 0.04 0.05 0.07 0.06 0.05 0.06 0.05 0.05 0.07 0.10 0.12 0.12 0.12 0.14 0.15 0.15 0.16 0.16 0.13 0.10 0.11
0.02 0.01 0.01 0.01 0.02 0.03 0.04 0.05 0.07 0.10 0.08 0.05 0.03 0.02 0.02 0.03 0.04 0.05 0.05 0.06 0.06 0.05 0.05 0.05 0.06 0.06 0.05 0.05 0.05 0.06 0.05 0.07 0.10 0.14 0.17 0.18 0.15 0.11 0.11 0.15 0.16 0.14 0.12
0.01 0.01 0.01 0.01 0.02 0.02 0.03 0.04 0.04 0.04 0.04 0.06 0.05 0.03 0.02 0.02 0.04 0.04 0.04 0.05 0.06 0.06 0.06 0.06 0.06 0.05 0.05 0.05 0.05 0.05 0.05 0.04 0.06 0.09 0.11 0.15 0.20 0.18 0.15 0.15 0.15 0.14 0.14
0.01 0.01 0.01 0.01 0.01 0.02 0.03 0.02 0.02 0.02 0.02 0.03 0.05 0.04 0.03 0.03 0.03 0.04 0.05 0.05 0.05 0.05 0.06 0.07 0.10 0.11 0.08 0.06 0.06 0.06 0.05 0.05 0.05 0.07 0.08 0.10 0.14 0.17 0.19 0.18 0.16 0.15 0.13
0.01 0.01 0.00 0.00 0.01 0.01 0.02 0.01 0.01 0.02 0.02 0.01 0.02 0.02 0.02 0.02 0.02 0.04 0.05 0.05 0.04 0.03 0.04 0.04 0.05 0.10 0.12 0.10 0.10 0.10 0.09 0.08 0.07 0.07 0.08 0.08 0.08 0.10 0.13 0.16 0.18 0.17 0.15
0.01 0.00 0.00 0.00 0.00 0.01 0.01 0.01 0.01 0.01 0.01 0.01 0.01 0.01 0.02 0.03 0.03 0.04 0.05 0.05 0.04 0.03 0.02 0.03 0.04 0.05 0.07 0.08 0.07 0.06 0.06 0.08 0.10 0.10 0.10 0.09 0.07 0.07 0.07 0.08 0.10 0.13 0.14
0.01 0.00 0.00 0.00 0.00 0.00 0.00 0.01 0.01 0.00 0.00 0.01 0.01 0.01 0.02 0.02 0.04 0.05 0.05 0.05 0.06 0.04 0.03 0.03 0.04 0.04 0.04 0.05 0.04 0.04 0.04 0.04 0.04 0.04 0.04 0.04 0.03 0.04 0.04 0.05 0.05 0.06 0.08
0.00 0.00 0.00 0.00 0.00 0.00 0.00 0.00 0.00 0.00 0.01 0.01 0.03 0.03 0.03 0.03 0.04 0.05 0.06 0.06 0.06 0.05 0.03 0.03 0.04 0.05 0.04 0.03 0.03 0.02 0.03 0.03 0.04 0.04 0.03 0.02 0.02 0.04 0.04 0.05 0.04 0.05 0.05
0.01 0.00 0.00 0.00 0.00 0.00 0.00 0.00 0.00 0.00 0.01 0.01 0.03 0.05 0.05 0.06 0.06 0.05 0.05 0.05 0.05 0.04 0.03 0.02 0.04 0.04 0.04 0.03 0.03 0.02 0.02 0.04 0.06 0.07 0.05 0.03 0.03 0.04 0.04 0.05 0.05 0.06 0.06
0.00 0.00 0.00 0.00 0.00 0.00 0.00 0.00 0.00 0.00 0.01 0.01 0.02 0.03 0.03 0.04 0.05 0.05 0.05 0.05 0.04 0.03 0.02 0.02 0.04 0.04 0.03 0.03 0.02 0.02 0.02 0.01 0.03 0.05 0.06 0.05 0.06 0.05 0.05 0.05 0.06 0.07 0.07
0.00 0.00 0.00 0.00 0.00 0.00 0.00 0.00 0.01 0.01 0.03 0.03 0.03 0.03 0.03 0.03 0.02 0.03 0.04 0.04 0.04 0.03 0.02 0.02 0.02 0.03 0.02 0.02 0.02 0.02 0.02 0.01 0.02 0.03 0.03 0.05 0.06 0.07 0.06 0.06 0.06 0.05 0.06
0.00 0.00 0.01 0.00 0.00 0.00 0.01 0.01 0.02 0.03 0.03 0.03 0.03 0.03 0.02 0.02 0.03 0.03 0.03 0.04 0.04 0.03 0.03 0.03 0.03 0.03 0.02 0.02 0.02 0.02 0.02 0.03 0.02 0.02 0.02 0.02 0.03 0.05 0.07 0.07 0.06 0.05 0.04
0.00 0.01 0.00 0.00 0.00 0.01 0.01 0.02 0.02 0.03 0.03 0.02 0.02 0.02 0.02 0.03 0.03 0.03 0.04 0.04 0.04 0.04 0.03 0.03 0.03 0.02 0.01 0.01 0.01 0.03 0.05 0.06 0.04 0.03 0.02 0.01 0.01 0.03 0.05 0.06 0.07 0.07 0.06
0.01 0.01 0.01 0.01 0.01 0.01 0.01 0.01 0.01 0.02 0.03 0.02 0.01 0.02 0.03 0.05 0.05 0.04 0.04 0.04 0.03 0.03 0.03 0.02 0.02 0.02 0.01 0.01 0.01 0.02 0.07 0.08 0.05 0.03 0.02 0.01 0.01 0.02 0.02 0.04 0.07 0.08 0.08
0.01 0.01 0.01 0.01 0.01 0.01 0.01 0.01 0.01 0.02 0.02 0.02 0.02 0.03 0.02 0.03 0.04 0.04 0.04 0.03 0.03 0.02 0.01 0.02 0.02 0.02 0.01 0.01 0.01 0.03 0.05 0.07 0.05 0.03 0.02 0.03 0.03 0.03 0.03 0.03 0.04 0.07 0.08
0.01 0.02 0.02 0.02 0.02 0.02 0.02 0.01 0.01 0.01 0.01 0.02 0.02 0.02 0.03 0.03 0.03 0.03 0.02 0.02 0.02 0.02 0.01 0.01 0.02 0.02 0.02 0.02 0.02 0.03 0.04 0.04 0.04 0.03 0.04 0.05 0.04 0.04 0.04 0.04 0.04 0.05 0.06
0.01 0.02 0.03 0.04 0.04 0.04 0.03 0.02 0.01 0.01 0.01 0.01 0.01 0.02 0.02 0.03 0.03 0.02 0.02 0.03 0.03 0.03 0.03 0.03 0.03 0.03 0.05 0.05 0.03 0.03 0.03 0.03 0.04 0.03 0.04 0.05 0.05 0.05 0.05 0.05 0.04 0.03 0.04
0.01 0.02 0.03 0.04 0.04 0.04 0.03 0.02 0.01 0.01 0.01 0.01 0.01 0.02 0.02 0.02 0.02 0.02 0.02 0.03 0.03 0.04 0.04 0.05 0.05 0.05 0.05 0.04 0.02 0.02 0.02 0.03 0.03 0.04 0.05 0.05 0.05 0.04 0.04 0.04 0.03 0.04 0.04
0.02 0.02 0.02 0.03 0.03 0.02 0.02 0.01 0.01 0.01 0.01 0.01 0.02 0.02 0.02 0.01 0.02 0.01 0.02 0.02 0.03 0.04 0.05 0.05 0.04 0.05 0.04 0.03 0.02 0.01 0.01 0.02 0.03 0.03 0.03 0.03 0.02 0.02 0.02 0.02 0.03 0.04 0.05
0.02 0.02 0.02 0.02 0.02 0.03 0.03 0.03 0.02 0.02 0.02 0.02 0.02 0.02 0.01 0.01 0.01 0.01 0.02 0.02 0.03 0.03 0.04 0.03 0.03 0.04 0.04 0.03 0.03 0.02 0.01 0.01 0.01 0.02 0.02 0.02 0.01 0.01 0.01 0.02 0.03 0.03 0.03
0.01 0.01 0.02 0.03 0.06 0.05 0.04 0.03 0.02 0.02 0.01 0.01 0.01 0.01 0.01 0.01 0.01 0.01 0.01 0.01 0.02 0.02 0.03 0.03 0.02 0.03 0.03 0.03 0.03 0.02 0.01 0.01 0.01 0.01 0.01 0.01 0.01 0.01 0.02 0.02 0.04 0.05 0.04
0.02 0.02 0.02 0.04 0.06 0.05 0.03 0.01 0.01 0.01 0.01 0.01 0.01 0.01 0.00 0.00 0.00 0.01 0.01 0.01 0.01 0.01 0.02 0.02 0.01 0.01 0.02 0.03 0.02 0.02 0.01 0.01 0.01 0.01 0.01 0.01 0.01 0.01 0.02 0.02 0.04 0.06 0.06
0.04 0.01 0.01 0.00 0.01 0.01 0.01 0.00 0.01 0.01 0.01 0.01 0.01 0.00 0.00 0.00 0.00 0.00 0.00 0.01 0.01 0.01 0.01 0.01 0.01 0.00 0.01 0.01 0.01 0.01 0.01 0.01 0.01 0.01 0.00 0.01 0.01 0.02 0.02 0.03 0.03 0.03 0.04
MSLP
1007.69 1007.97 1008.22 1008.41 1008.52 1008.56 1008.54 1008.49 1008.43 1008.37 1008.34 1008.33 1008.34 1008.37 1008.41 1008.46 1008.54 1008.65 1008.80 1008.99 1009.24 1009.52 1009.84 1010.17 1010.52 1010.86 1011.20 1011.55 1011.89 1012.25 1012.62 1012.98 1013.32 1013.63 1013.87 1014.02 1014.08 1014.02 1013.86 1013.62 1013.34 1013.05 1012.78
1007.34 1007.68 1007.98 1008.22 1008.37 1008.44 1008.46 1008.44 1008.42 1008.41 1008.42 1008.45 1008.49 1008.53 1008.57 1008.61 1008.67 1008.76 1008.90 1009.08 1009.32 1009.61 1009.91 1010.22 1010.52 1010.78 1011.02 1011.24 1011.46 1011.69 1011.95 1012.25 1012.57 1012.89 1013.18 1013.40 1013.52 1013.52 1013.39 1013.15 1012.83 1012.49 1012.16
1006.84 1007.23 1007.59 1007.87 1008.07 1008.18 1008.24 1008.27 1008.30 1008.35 1008.41 1008.50 1008.58 1008.65 1008.70 1008.74 1008.78 1008.83 1008.93 1009.08 1009.28 1009.53 1009.79 1010.06 1010.30 1010.49 1010.64 1010.76 1010.87 1011.01 1011.19 1011.43 1011.73 1012.06 1012.37 1012.64 1012.82 1012.86 1012.76 1012.54 1012.21 1011.84 1011.47
1006.20 1006.64 1007.05 1007.39 1007.64 1007.81 1007.92 1008.01 1008.10 1008.22 1008.35 1008.50 1008.65 1008.76 1008.84 1008.88 1008.90 1008.92 1008.97 1009.05 1009.19 1009.37 1009.58 1009.78 1009.96 1010.10 1010.18 1010.24 1010.28 1010.35 1010.47 1010.66 1010.92 1011.24 1011.56 1011.84 1012.04 1012.11 1012.04 1011.82 1011.50 1011.12 1010.74
1005.50 1005.97 1006.43 1006.83 1007.15 1007.38 1007.56 1007.71 1007.87 1008.06 1008.28 1008.51 1008.72 1008.90 1009.02 1009.07 1009.08 1009.06 1009.05 1009.06 1009.12 1009.22 1009.35 1009.50 1009.62 1009.71 1009.75 1009.76 1009.76 1009.78 1009.85 1010.00 1010.21 1010.49 1010.78 1011.05 1011.24 1011.31 1011.25 1011.04 1010.73 1010.36 1009.98
1004.79 1005.30 1005.81 1006.28 1006.66 1006.96 1007.20 1007.43 1007.66 1007.93 1008.22 1008.53 1008.82 1009.06 1009.23 1009.30 1009.31 1009.26 1009.18 1009.12 1009.10 1009.11 1009.17 1009.24 1009.31 1009.36 1009.38 1009.36 1009.34 1009.32 1009.35 1009.44 1009.60 1009.81 1010.05 1010.26 1010.42 1010.47 1010.40 1010.20 1009.91 1009.55 1009.19
1004.15 1004.68 1005.25 1005.78 1006.23 1006.60 1006.91 1007.20 1007.50 1007.83 1008.19 1008.57 1008.93 1009.23 1009.44 1009.55 1009.56 1009.48 1009.36 1009.23 1009.12 1009.06 1009.03 1009.04 1009.06 1009.07 1009.07 1009.03 1008.98 1008.94 1008.93 1008.96 1009.04 1009.18 1009.33 1009.48 1009.57 1009.59 1009.51 1009.32 1009.05 1008.72 1008.38
1003.62 1004.18 1004.80 1005.39 1005.90 1006.34 1006.71 1007.05 1007.39 1007.77 1008.19 1008.62 1009.03 1009.38 1009.63 1009.77 1009.78 1009.69 1009.53 1009.34 1009.17 1009.02 1008.92 1008.87 1008.84 1008.82 1008.78 1008.73 1008.66 1008.59 1008.52 1008.49 1008.50 1008.54 1008.61 1008.67 1008.71 1008.69 1008.60 1008.42 1008.18 1007.89 1007.59
1003.21 1003.81 1004.47 1005.11 1005.68 1006.16 1006.57 1006.95 1007.33 1007.74 1008.18 1008.64 1009.08 1009.46 1009.75 1009.90 1009.93 1009.83 1009.65 1009.42 1009.19 1008.98 1008.82 1008.70 1008.62 1008.56 1008.50 1008.42 1008.32 1008.21 1008.09 1008.00 1007.92 1007.88 1007.86 1007.85 1007.84 1007.79 1007.70 1007.55 1007.35 1007.12 1006.87
1002.91 1003.53 1004.23 1004.91 1005.52 1006.04 1006.48 1006.88 1007.27 1007.69 1008.14 1008.61 1009.06 1009.46 1009.76 1009.94 1009.97 1009.88 1009.69 1009.43 1009.16 1008.90 1008.69 1008.52 1008.39 1008.29 1008.19 1008.07 1007.94 1007.78 1007.62 1007.46 1007.32 1007.20 1007.11 1007.05 1007.00 1006.94 1006.86 1006.76 1006.62 1006.44 1006.25
1002.65 1003.30 1004.03 1004.74 1005.37 1005.92 1006.38 1006.79 1007.19 1007.60 1008.04 1008.50 1008.95 1009.35 1009.66 1009.85 1009.90 1009.82 1009.62 1009.37 1009.08 1008.79 1008.54 1008.32 1008.15 1008.00 1007.86 1007.70 1007.53 1007.33 1007.11 1006.90 1006.70 1006.54 1006.40 1006.31 1006.24 1006.19 1006.14 1006.09 1006.01 1005.90 1005.78
1002.40 1003.07 1003.81 1004.53 1005.19 1005.75 1006.23 1006.66 1007.06 1007.46 1007.90 1008.34 1008.78 1009.17 1009.48 1009.67 1009.73 1009.66 1009.49 1009.23 1008.94 1008.64 1008.36 1008.12 1007.91 1007.71 1007.53 1007.33 1007.11 1006.87 1006.62 1006.36 1006.13 1005.93 1005.78 1005.67 1005.60 1005.57 1005.56 1005.55 1005.53 1005.49 1005.42
1002.11 1002.79 1003.54 1004.27 1004.94 1005.52 1006.02 1006.46 1006.87 1007.29 1007.71 1008.15 1008.57 1008.94 1009.24 1009.44 1009.50 1009.45 1009.29 1009.05 1008.77 1008.47 1008.18 1007.91 1007.67 1007.44 1007.21 1006.97 1006.71 1006.44 1006.15 1005.88 1005.63 1005.42 1005.26 1005.15 1005.10 1005.09 1005.10 1005.13 1005.15 1005.16 1005.14
1001.79 1002.48 1003.22 1003.95 1004.62 1005.23 1005.75 1006.23 1006.67 1007.10 1007.53 1007.96 1008.37 1008.72 1009.01 1009.19 1009.25 1009.21 1009.06 1008.84 1008.57 1008.28 1007.98 1007.70 1007.43 1007.17 1006.90 1006.63 1006.34 1006.04 1005.74 1005.46 1005.21 1005.00 1004.85 1004.76 1004.72 1004.72 1004.75 1004.79 1004.82 1004.85 1004.85
1001.49 1002.16 1002.89 1003.62 1004.30 1004.93 1005.50 1006.01 1006.49 1006.95 1007.40 1007.82 1008.22 1008.55 1008.81 1008.96 1009.01 1008.96 1008.82 1008.60 1008.34 1008.06 1007.76 1007.47 1007.18 1006.89 1006.59 1006.29 1005.98 1005.67 1005.37 1005.09 1004.86 1004.67 1004.54 1004.46 1004.42 1004.42 1004.44 1004.46 1004.48 1004.48 1004.46
1001.27 1001.92 1002.63 1003.35 1004.05 1004.70 1005.31 1005.87 1006.40 1006.89 1007.36 1007.78 1008.15 1008.45 1008.67 1008.78 1008.80 1008.72 1008.56 1008.34 1008.07 1007.79 1007.49 1007.18 1006.87 1006.56 1006.25 1005.92 1005.61 1005.29 1005.00 1004.75 1004.54 1004.38 1004.27 1004.21 1004.18 1004.16 1004.15 1004.12 1004.08 1004.02 1003.95
1001.21 1001.84 1002.53 1003.24 1003.94 1004.62 1005.27 1005.87 1006.44 1006.96 1007.44 1007.85 1008.18 1008.44 1008.59 1008.65 1008.61 1008.48 1008.29 1008.04 1007.76 1007.46 1007.15 1006.83 1006.50 1006.17 1005.84 1005.51 1005.19 1004.89 1004.62 1004.40 1004.23 1004.11 1004.04 1003.99 1003.96 1003.92 1003.86 1003.76 1003.64 1003.49 1003.33
1001.38 1001.99 1002.65 1003.35 1004.05 1004.74 1005.41 1006.05 1006.64 1007.18 1007.64 1008.02 1008.31 1008.49 1008.57 1008.55 1008.44 1008.25 1008.01 1007.72 1007.41 1007.08 1006.75 1006.41 1006.06 1005.71 1005.37 1005.04 1004.73 1004.45 1004.22 1004.04 1003.93 1003.86 1003.82 1003.80 1003.77 1003.71 1003.59 1003.42 1003.20 1002.95 1002.69
1001.82 1002.41 1003.05 1003.72 1004.41 1005.10 1005.77 1006.41 1007.00 1007.51 1007.94 1008.28 1008.49 1008.60 1008.59 1008.49 1008.29 1008.03 1007.73 1007.39 1007.05 1006.69 1006.33 1005.96 1005.60 1005.24 1004.88 1004.55 1004.26 1004.01 1003.82 1003.70 1003.64 1003.63 1003.65 1003.66 1003.65 1003.57 1003.42 1003.18 1002.87 1002.52 1002.15
1002.54 1003.10 1003.70 1004.34 1005.00 1005.66 1006.30 1006.91 1007.46 1007.94 1008.31 1008.57 1008.70 1008.72 1008.63 1008.43 1008.16 1007.83 1007.47 1007.09 1006.71 1006.32 1005.94 1005.55 1005.17 1004.80 1004.44 1004.12 1003.84 1003.62 1003.48 1003.42 1003.42 1003.47 1003.55 1003.61 1003.62 1003.55 1003.38 1003.11 1002.74 1002.30 1001.85
1003.48 1004.01 1004.58 1005.16 1005.77 1006.37 1006.96 1007.51 1007.99 1008.39 1008.69 1008.86 1008.91 1008.84 1008.66 1008.38 1008.05 1007.67 1007.27 1006.86 1006.45 1006.04 1005.64 1005.24 1004.85 1004.47 1004.11 1003.79 1003.53 1003.35 1003.25 1003.23 1003.30 1003.41 1003.55 1003.66 1003.72 1003.68 1003.52 1003.24 1002.85 1002.38 1001.88
1004.58 1005.07 1005.58 1006.11 1006.64 1007.17 1007.67 1008.14 1008.53 1008.83 1009.03 1009.11 1009.08 1008.93 1008.68 1008.35 1007.97 1007.56 1007.13 1006.71 1006.30 1005.89 1005.48 1005.08 1004.69 1004.31 1003.95 1003.64 1003.39 1003.22 1003.15 1003.18 1003.29 1003.45 1003.64 1003.81 1003.92 1003.93 1003.81 1003.55 1003.18 1002.73 1002.22
1005.75 1006.19 1006.64 1007.10 1007.54 1007.97 1008.37 1008.73 1009.02 1009.22 1009.32 1009.31 1009.20 1008.98 1008.69 1008.33 1007.93 1007.51 1007.09 1006.67 1006.27 1005.87 1005.48 1005.09 1004.70 1004.32 1003.97 1003.66 1003.42 1003.26 1003.20 1003.25 1003.38 1003.58 1003.81 1004.03 1004.18 1004.25 1004.18 1003.99 1003.68 1003.27 1002.82
1006.92 1007.30 1007.68 1008.05 1008.40 1008.72 1009.01 1009.26 1009.44 1009.54 1009.54 1009.46 1009.28 1009.02 1008.70 1008.32 1007.92 1007.52 1007.12 1006.73 1006.35 1005.97 1005.60 1005.23 1004.85 1004.48 1004.13 1003.83 1003.58 1003.43 1003.37 1003.42 1003.55 1003.76 1004.01 1004.25 1004.45 1004.56 1004.56 1004.44 1004.21 1003.89 1003.52
1008.02 1008.33 1008.63 1008.91 1009.16 1009.38 1009.57 1009.71 1009.78 1009.79 1009.72 1009.57 1009.34 1009.05 1008.72 1008.35 1007.96 1007.58 1007.21 1006.85 1006.50 1006.16 1005.81 1005.46 1005.10 1004.74 1004.40 1004.10 1003.85 1003.68 1003.61 1003.64 1003.76 1003.95 1004.18 1004.43 1004.64 1004.79 1004.85 1004.80 1004.66 1004.44 1004.17
1009.00 1009.25 1009.47 1009.66 1009.82 1009.95 1010.04 1010.08 1010.07 1010.00 1009.87 1009.67 1009.41 1009.11 1008.77 1008.41 1008.05 1007.69 1007.35 1007.02 1006.70 1006.38 1006.06 1005.73 1005.39 1005.05 1004.72 1004.41 1004.16 1003.98 1003.88 1003.88 1003.96 1004.12 1004.32 1004.54 1004.75 1004.91 1005.00 1005.01 1004.95 1004.82 1004.65
Thickness
5795 5793 5791 5788 5785 5781 5778 5775 5772 5770 5769 5768 5767 5765 5765 5765 5765 5764 5761 5760 5759 5759 5757 5758 5756 5756 5757 5755 5756 5756 5756 5756 5756 5754 5754 5758 5761 5760 5758 5758 5757 5757 5755
5793 5790 5789 5787 5784 5780 5778 5775 5772 5770 5768 5766 5764 5763 5763 5764 5763 5762 5759 5758 5757 5756 5758 5754 5755 5754 5753 5753 5753 5753 5753 5754 5754 5751 5749 5748 5751 5754 5759 5756 5755 5754 5753
5792 5790 5788 5786 5783 5780 5778 5776 5771 5769 5766 5765 5764 5762 5760 5760 5760 5758 5756 5755 5754 5754 5753 5752 5752 5752 5752 5752 5750 5750 5749 5748 5750 5751 5748 5744 5742 5745 5751 5752 5751 5750 5749
5796 5793 5790 5786 5783 5781 5778 5774 5770 5768 5766 5764 5761 5758 5756 5754 5754 5754 5754 5752 5751 5750 5750 5750 5749 5749 5749 5748 5749 5750 5748 5746 5745 5747 5747 5746 5744 5740 5740 5745 5747 5747 5746
5798 5794 5791 5787 5783 5781 5778 5774 5769 5766 5764 5762 5759 5756 5755 5754 5754 5752 5749 5748 5748 5747 5747 5747 5746 5745 5746 5745 5744 5744 5745 5745 5744 5743 5743 5741 5741 5741 5737 5735 5738 5741 5743
5799 5795 5792 5787 5782 5780 5776 5773 5767 5763 5762 5759 5757 5753 5751 5749 5748 5747 5746 5746 5747 5745 5744 5744 5742 5742 5742 5741 5741 5740 5741 5741 5740 5740 5740 5738 5736 5735 5736 5734 5733 5734 5737
5798 5793 5789 5784 5780 5777 5774 5771 5765 5760 5759 5757 5754 5751 5749 5747 5745 5744 5744 5743 5743 5742 5740 5740 5738 5738 5737 5737 5737 5736 5736 5736 5735 5734 5735 5735 5734 5734 5733 5731 5730 5730 5732
5797 5792 5788 5784 5779 5775 5772 5767 5763 5759 5757 5754 5752 5749 5748 5747 5746 5743 5742 5740 5740 5739 5736 5734 5734 5733 5733 5733 5732 5733 5732 5730 5730 5730 5728 5729 5730 5731 5730 5728 5725 5723 5725
5795 5792 5789 5785 5780 5775 5770 5766 5761 5757 5755 5753 5750 5747 5745 5743 5742 5739 5738 5737 5735 5735 5733 5731 5730 5729 5728 5727 5727 5726 5726 5725 5725 5726 5725 5724 5725 5726 5726 5726 5723 5719 5716
5795 5791 5788 5784 5780 5776 5771 5766 5761 5756 5753 5751 5749 5746 5743 5741 5739 5737 5734 5732 5730 5730 5729 5728 5726 5725 5724 5723 5721 5722 5721 5720 5719 5719 5718 5718 5720 5720 5721 5721 5720 5718 5715
5793 5790 5786 5783 5779 5774 5769 5763 5759 5755 5752 5749 5746 5743 5741 5739 5737 5734 5731 5729 5727 5725 5724 5723 5721 5720 5719 5718 5717 5717 5716 5715 5714 5714 5713 5712 5712 5714 5714 5714 5714 5713 5712
5792 5788 5784 5780 5775 5770 5766 5761 5758 5754 5750 5747 5743 5740 5737 5735 5733 5730 5727 5725 5723 5722 5720 5719 5717 5716 5715 5713 5711 5710 5710 5709 5708 5707 5707 5707 5708 5706 5707 5707 5707 5706 5705
5786 5784 5780 5775 5770 5766 5762 5759 5756 5752 5749 5744 5740 5736 5734 5731 5729 5726 5724 5721 5719 5718 5717 5714 5713 5710 5709 5707 5706 5705 5704 5704 5703 5702 5701 5701 5700 5699 5700 5699 5700 5700 5701
5781 5778 5775 5770 5766 5762 5758 5755 5752 5749 5746 5741 5738 5733 5730 5728 5725 5723 5720 5718 5716 5714 5711 5710 5707 5705 5703 5702 5701 5700 5699 5699 5698 5697 5696 5695 5694 5693 5693 5693 5692 5693 5692
5775 5772 5769 5766 5762 5758 5754 5750 5747 5744 5741 5736 5733 5729 5727 5724 5721 5718 5715 5713 5711 5710 5706 5704 5702 5700 5699 5697 5695 5694 5695 5693 5692 5692 5691 5690 5687 5685 5684 5686 5685 5685 5685
5771 5767 5764 5760 5757 5753 5749 5746 5742 5739 5735 5731 5728 5725 5722 5719 5716 5713 5711 5708 5705 5703 5701 5698 5696 5694 5693 5688 5686 5686 5688 5687 5685 5684 5683 5683 5682 5679 5676 5675 5674 5674 5675
5767 5763 5760 5756 5753 5750 5746 5742 5738 5735 5730 5726 5723 5720 5717 5714 5711 5709 5706 5702 5699 5697 5695 5692 5690 5688 5684 5681 5679 5678 5680 5680 5679 5677 5676 5677 5677 5673 5671 5669 5668 5667 5666
5763 5759 5756 5753 5750 5748 5744 5738 5734 5730 5725 5721 5718 5715 5712 5709 5706 5703 5700 5696 5694 5692 5689 5686 5684 5681 5678 5674 5672 5671 5673 5674 5672 5671 5669 5668 5666 5666 5662 5662 5663 5662 5661
5760 5755 5752 5749 5745 5741 5737 5732 5727 5724 5719 5715 5712 5709 5706 5703 5700 5696 5693 5691 5688 5685 5683 5681 5678 5675 5672 5668 5665 5663 5667 5667 5665 5664 5663 5660 5658 5654 5651 5652 5653 5653 5653
5754 5750 5746 5742 5737 5733 5729 5724 5720 5716 5712 5708 5705 5703 5700 5696 5693 5690 5687 5685 5682 5680 5678 5675 5672 5670 5667 5662 5659 5656 5660 5659 5658 5657 5656 5652 5649 5645 5642 5643 5644 5644 5645
5747 5743 5738 5733 5729 5725 5721 5716 5712 5708 5705 5703 5699 5696 5693 5690 5687 5684 5682 5679 5677 5674 5671 5668 5666 5663 5660 5656 5651 5648 5650 5650 5650 5650 5649 5647 5640 5637 5634 5633 5635 5635 5634
5738 5735 5729 5725 5722 5719 5714 5709 5704 5702 5699 5696 5692 5689 5686 5685 5683 5678 5675 5673 5670 5667 5664 5661 5659 5658 5654 5649 5645 5641 5639 5638 5640 5640 5640 5638 5631 5629 5627 5626 5626 5625 5624
5731 5727 5723 5718 5715 5712 5708 5702 5699 5696 5692 5689 5685 5682 5679 5676 5675 5672 5669 5667 5664 5662 5660 5657 5654 5652 5650 5645 5639 5635 5632 5629 5629 5630 5627 5624 5622 5622 5623 5621 5619 5618 5620
5723 5720 5716 5712 5707 5704 5700 5697 5693 5690 5686 5682 5678 5676 5673 5670 5667 5665 5665 5663 5660 5657 5654 5651 5648 5645 5642 5639 5635 5631 5627 5623 5622 5621 5619 5616 5615 5615 5614 5615 5615 5615 5615
5716 5713 5709 5705 5701 5698 5694 5691 5687 5683 5679 5676 5673 5670 5668 5666 5662 5659 5656 5654 5651 5648 5644 5643 5641 5638 5634 5628 5620 5619 5620 5617 5615 5611 5613 5614 5613 5612 5611 5611 5610 5608 5608
5709 5705 5702 5699 5695 5692 5688 5684 5681 5677 5673 5670 5668 5666 5664 5661 5659 5655 5652 5645 5642 5637 5633 5630 5627 5627 5621 5616 5613 5610 5607 5605 5603 5604 5608 5608 5606 5604 5604 5603 5602 5601 5600